FW0450 Weather Reports


time (UTC)temp
C
wind
direction
speed
KPH
gust
KPH
rain 1hr
cm
rain 24hr
cm
rain mn
cm
humidity
%
barometer
mb
20190617123007 20 311 6.4 12.9 0.00 0.00 0.00 58 1016.6
20190617122507 20 344 8.0 12.9 0.00 0.00 0.00 59 1017.1
20190617122007 20 20 8.0 16.1 0.00 0.00 0.00 59 1016.8
20190617121507 20 349 8.0 16.1 0.00 0.00 0.00 59 1016.9
20190617121007 20 281 8.0 16.1 0.00 0.00 0.00 60 1017.2
20190617120507 20 290 6.4 11.3 0.00 0.00 0.00 60 1017.2
20190617120007 20 314 9.7 14.5 0.00 0.00 0.00 60 1017.2
20190617115506 19 327 9.7 14.5 0.00 0.00 0.00 62 1016.8
20190617115007 19 341 9.7 14.5 0.00 0.00 0.00 62 1017.0
20190617114507 19 356 9.7 14.5 0.00 0.00 0.00 62 1017.1
20190617114007 19 7 9.7 14.5 0.00 0.00 0.00 61 1017.4
20190617113504 19 334 11.3 14.5 0.00 0.00 0.00 64 1017.3
20190617113005 18 320 11.3 14.5 0.00 0.00 0.00 65 1017.2
20190617112505 18 333 9.7 12.9 0.00 0.00 0.00 65 1017.6
20190617112005 18 329 11.3 16.1 0.00 0.00 0.00 65 1017.7
20190617111505 18 335 9.7 16.1 0.00 0.00 0.00 63 1017.5
20190617111005 19 60 9.7 12.9 0.00 0.00 0.00 62 1017.7
20190617110504 19 115 8.0 11.3 0.00 0.00 0.00 48 1017.6
20190617110005 19 147 6.4 11.3 0.00 0.00 0.00 48 1017.6
20190617105504 19 145 4.8 9.7 0.00 0.00 0.00 49 1017.8
20190617105005 19 158 4.8 9.7 0.00 0.00 0.00 50 1017.5
20190617104505 19 144 6.4 12.9 0.00 0.00 0.00 51 1017.6
20190617104005 18 161 8.0 12.9 0.00 0.00 0.00 52 1017.8
20190617103505 18 183 4.8 11.3 0.00 0.00 0.00 51 1017.8
20190617103004 19 171 4.8 9.7 0.00 0.00 0.00 50 1017.8
20190617102504 19 172 6.4 12.9 0.00 0.00 0.00 51 1017.7
20190617102005 18 182 8.0 12.9 0.00 0.00 0.00 50 1018.0
20190617101505 19 168 6.4 11.3 0.00 0.00 0.00 51 1017.8
20190617101005 19 73 6.4 9.7 0.00 0.00 0.00 50 1018.0
20190617100505 18 48 8.0 12.9 0.00 0.00 0.00 52 1018.0
20190617100005 18 62 6.4 12.9 0.00 0.00 0.00 52 1017.8
20190617095505 18 128 6.4 12.9 0.00 0.00 0.00 51 1017.8
20190617095005 18 160 6.4 12.9 0.00 0.00 0.00 52 1017.7
20190617094505 18 160 6.4 12.9 0.00 0.00 0.00 58 1017.9
20190617094005 17 142 6.4 12.9 0.00 0.00 0.00 57 1017.8
20190617093505 17 127 6.4 14.5 0.00 0.00 0.00 60 1017.7
20190617093005 17 110 8.0 14.5 0.00 0.00 0.00 60 1017.8
20190617092504 17 85 4.8 9.7 0.00 0.00 0.00 62 1018.0
20190617092005 18 144 3.2 8.0 0.00 0.00 0.00 64 1017.6
20190617091508 17 153 4.8 9.7 0.00 0.00 0.00 65 1017.8
20190617091006 17 136 4.8 9.7 0.00 0.00 0.00 66 1017.8
20190617090505 16 158 6.4 12.9 0.00 0.00 0.00 70 1017.8
20190617090005 16 150 6.4 12.9 0.00 0.00 0.00 70 1017.9
20190617085505 16 117 8.0 11.3 0.00 0.00 0.00 69 1017.7
20190617085005 17 94 6.4 11.3 0.00 0.00 0.00 69 1017.8
20190617084504 17 22 3.2 11.3 0.00 0.00 0.00 66 1017.7
20190617084005 18 7 4.8 12.9 0.00 0.00 0.00 70 1017.7
20190617083505 17 16 8.0 12.9 0.00 0.00 0.00 72 1017.8
20190617083005 17 4 6.4 9.7 0.00 0.00 0.00 74 1017.9
20190617082505 17 338 4.8 9.7 0.00 0.00 0.00 74 1017.8
20190617082004 16 350 4.8 8.0 0.00 0.00 0.00 77 1018.1
20190617081504 16 354 4.8 8.0 0.00 0.00 0.00 79 1017.9
20190617081004 16 354 4.8 8.0 0.00 0.00 0.00 79 1018.0
20190617080504 15 345 6.4 9.7 0.00 0.00 0.00 80 1017.9
20190617080005 15 348 6.4 12.9 0.00 0.00 0.00 82 1017.9
20190617075505 15 6 9.7 17.7 0.00 0.00 0.00 83 1018.1
20190617075005 15 16 11.3 17.7 0.00 0.00 0.00 85 1017.9
20190617074506 14 30 9.7 16.1 0.00 0.00 0.00 88 1017.3
20190617074005 14 29 8.0 12.9 0.00 0.00 0.00 91 1017.6
20190617073504 14 35 6.4 11.3 0.00 0.00 0.00 95 1017.8
20190617073005 14 29 8.0 12.9 0.00 0.00 0.00 96 1017.8
20190617072504 13 23 8.0 12.9 0.00 0.00 0.00 99 1017.8
20190617072006 13 31 6.4 12.9 0.00 0.00 0.00 98 1017.8
20190617071504 12 47 8.0 12.9 0.00 0.00 0.00 99 1017.7
20190617071005 12 57 9.7 12.9 0.00 0.00 0.00 99 1017.8
20190617070505 12 57 9.7 12.9 0.00 0.00 0.00 99 1017.8
20190617070005 12 62 9.7 12.9 0.00 0.00 0.00 98 1017.8
20190617065505 12 56 11.3 14.5 0.00 0.00 0.00 98 1017.9
20190617065005 12 49 9.7 14.5 0.00 0.00 0.00 98 1017.9
20190617064505 11 50 9.7 16.1 0.00 0.00 0.00 98 1018.0
20190617064005 11 44 11.3 16.1 0.00 0.00 0.00 98 1018.0
20190617063505 11 40 12.9 16.1 0.00 0.00 0.00 98 1017.5
20190617063005 12 43 11.3 16.1 0.00 0.00 0.00 98 1017.7
20190617062505 12 41 9.7 14.5 0.00 0.00 0.00 98 1017.9
20190617062005 12 38 9.7 14.5 0.00 0.00 0.00 98 1017.9
20190617061505 12 36 9.7 12.9 0.00 0.00 0.00 98 1017.9
20190617061005 12 36 9.7 12.9 0.00 0.00 0.00 98 1017.9
20190617060505 12 37 8.0 11.3 0.00 0.00 0.00 98 1018.1
20190617060005 12 21 6.4 11.3 0.00 0.00 0.00 98 1018.0
20190617055505 12 7 4.8 8.0 0.00 0.00 0.00 98 1018.0
20190617055005 12 10 3.2 8.0 0.00 0.00 0.00 98 1018.0
20190617054505 11 248 1.6 6.4 0.00 0.00 0.00 98 1018.3
20190617054005 11 233 1.6 4.8 0.00 0.00 0.00 98 1018.1
20190617053505 11 250 1.6 4.8 0.00 0.00 0.00 98 1018.3
20190617053007 11 270 1.6 3.2 0.00 0.00 0.00 98 1018.3
20190617052505 11 268 1.6 3.2 0.00 0.00 0.00 98 1018.1
20190617052005 11 304 3.2 6.4 0.00 0.00 0.00 98 1018.1
20190617051505 12 349 6.4 11.3 0.00 0.00 0.00 98 1017.9
20190617051005 12 15 9.7 12.9 0.00 0.00 0.00 98 1017.8
20190617050505 12 22 9.7 12.9 0.00 0.00 0.00 98 1017.6
20190617050005 12 26 9.7 12.9 0.00 0.00 0.00 98 1017.7
20190617045505 12 18 9.7 12.9 0.00 0.00 0.00 98 1017.6
20190617045005 12 5 9.7 12.9 0.00 0.00 0.00 98 1017.6
20190617044505 12 18 9.7 12.9 0.00 0.00 0.00 98 1017.4
20190617044005 12 27 9.7 12.9 0.00 0.00 0.00 98 1017.5
20190617043505 12 23 9.7 12.9 0.00 0.00 0.00 98 1017.7
20190617043005 12 15 8.0 12.9 0.00 0.00 0.00 98 1017.6
20190617042504 12 6 6.4 9.7 0.00 0.00 0.00 98 1017.7
20190617042005 12 6 8.0 12.9 0.00 0.00 0.00 98 1018.0
20190617041505 12 8 8.0 12.9 0.00 0.00 0.00 98 1017.9
20190617041005 12 5 8.0 9.7 0.00 0.00 0.00 98 1017.8
20190617040505 12 15 8.0 9.7 0.00 0.00 0.00 98 1017.7
20190617040005 12 32 8.0 11.3 0.00 0.00 0.00 98 1017.7
20190617035505 12 35 8.0 11.3 0.00 0.00 0.00 98 1017.9
20190617035006 12 39 9.7 14.5 0.00 0.00 0.00 98 1017.7
20190617034506 12 36 9.7 14.5 0.00 0.00 0.00 98 1017.7
20190617034005 12 26 9.7 14.5 0.00 0.00 0.00 98 1017.8
20190617033505 12 12 8.0 11.3 0.00 0.00 0.00 98 1017.7
20190617033005 12 4 6.4 9.7 0.00 0.00 0.00 98 1017.9
20190617032505 12 1 3.2 6.4 0.00 0.00 0.00 98 1018.1
20190617032006 12 345 3.2 6.4 0.00 0.00 0.00 96 1018.2
20190617031505 12 351 4.8 6.4 0.00 0.00 0.00 96 1018.4
20190617031005 12 359 6.4 8.0 0.00 0.00 0.00 96 1018.3
20190617030505 12 1 6.4 8.0 0.00 0.00 0.00 96 1018.3
20190617030006 12 7 6.4 9.7 0.00 0.00 0.00 95 1018.1
20190617025505 12 4 6.4 9.7 0.00 0.00 0.00 95 1018.4
20190617025005 12 359 6.4 11.3 0.00 0.00 0.00 95 1018.4
20190617024505 12 5 8.0 12.9 0.00 0.00 0.00 95 1018.5
20190617024006 12 3 8.0 12.9 0.00 0.00 0.00 95 1018.4
20190617023505 12 1 8.0 12.9 0.00 0.00 0.00 95 1018.4
20190617023005 12 4 8.0 12.9 0.00 0.00 0.00 94 1018.4
20190617022505 12 5 8.0 12.9 0.00 0.00 0.00 94 1018.4
20190617022005 12 2 8.0 12.9 0.00 0.00 0.00 94 1018.3
20190617021506 12 1 9.7 12.9 0.00 0.00 0.00 94 1018.7
20190617021005 12 1 9.7 12.9 0.00 0.00 0.00 94 1018.5
20190617020505 12 5 9.7 12.9 0.00 0.00 0.00 94 1018.6
20190617020006 12 6 9.7 12.9 0.00 0.00 0.00 94 1018.6
20190617015505 12 2 9.7 12.9 0.00 0.00 0.00 93 1018.8
20190617015006 12 3 11.3 14.5 0.00 0.00 0.00 93 1018.6
20190617014506 12 5 11.3 16.1 0.00 0.00 0.00 93 1018.6
20190617014005 12 4 11.3 16.1 0.00 0.00 0.00 93 1018.8
20190617013505 12 1 11.3 17.7 0.00 0.00 0.00 92 1018.6
20190617013006 12 1 11.3 17.7 0.00 0.00 0.00 92 1018.9
20190617012506 12 1 11.3 17.7 0.00 0.00 0.00 92 1018.7
20190617012005 12 4 12.9 17.7 0.00 0.00 0.00 92 1018.9
20190617011506 12 4 12.9 17.7 0.00 0.00 0.00 92 1018.9
20190617011006 12 1 12.9 17.7 0.00 0.00 0.00 91 1018.8
20190617010505 12 358 12.9 17.7 0.00 0.00 0.00 91 1019.0
20190617010006 13 2 12.9 17.7 0.00 0.00 0.00 91 1019.1
20190617005505 13 8 12.9 16.1 0.00 0.00 0.00 91 1019.2
20190617005006 13 2 12.9 17.7 0.00 0.00 0.00 91 1019.3
20190617004506 13 3 12.9 17.7 0.00 0.00 0.00 91 1019.2
20190617004006 13 4 12.9 17.7 0.00 0.00 0.00 91 1019.3
20190617003505 13 1 12.9 17.7 0.00 0.00 0.00 90 1019.1
20190617003005 13 8 14.5 17.7 0.00 0.00 0.00 90 1019.2
20190617002506 13 11 14.5 19.3 0.00 0.00 0.00 90 1019.1
20190617002005 13 3 14.5 19.3 0.00 0.00 0.00 91 1019.2
20190617001505 13 4 14.5 17.7 0.00 0.00 0.00 91 1019.3
20190617001005 13 5 14.5 17.7 0.00 0.00 0.00 91 1019.2
20190617000505 13 9 14.5 22.5 0.00 0.00 0.00 91 1019.3
20190617000006 13 17 14.5 22.5 0.00 0.00 0.00 91 1019.2
20190616235506 13 14 16.1 19.3 0.00 0.00 0.00 92 1019.3
20190616235006 13 14 14.5 19.3 0.00 0.00 0.00 92 1019.4
20190616234505 13 7 14.5 20.9 0.00 0.00 0.00 92 1019.3
20190616234006 13 1 14.5 20.9 0.00 0.00 0.00 93 1019.4
20190616233506 13 357 14.5 19.3 0.00 0.00 0.00 93 1019.7
20190616233006 13 356 14.5 17.7 0.00 0.00 0.00 93 1019.5
20190616232505 13 2 12.9 17.7 0.00 0.00 0.00 93 1019.7
20190616232006 13 1 14.5 20.9 0.00 0.00 0.00 93 1019.8
20190616231506 13 6 14.5 20.9 0.00 0.00 0.00 93 1019.7
20190616231005 13 9 12.9 17.7 0.00 0.00 0.00 93 1019.8
20190616230505 13 358 12.9 19.3 0.00 0.00 0.00 93 1019.6
20190616230009 13 355 12.9 19.3 0.00 0.00 0.00 93 1019.9
20190616225506 13 358 14.5 22.5 0.00 0.00 0.00 93 1019.7
20190616225005 13 1 16.1 22.5 0.00 0.00 0.00 93 1019.7
20190616224505 13 359 16.1 22.5 0.00 0.00 0.00 93 1019.8
20190616224006 13 359 14.5 22.5 0.00 0.00 0.00 93 1019.7
20190616223505 13 2 12.9 17.7 0.00 0.00 0.00 93 1019.9
20190616223005 13 2 12.9 19.3 0.00 0.00 0.00 93 1019.9
20190616222506 13 5 14.5 24.1 0.00 0.00 0.00 93 1019.8
20190616222005 13 7 14.5 24.1 0.00 0.00 0.00 93 1019.9
20190616221506 13 4 14.5 20.9 0.00 0.00 0.00 93 1020.1
20190616221006 13 1 12.9 17.7 0.00 0.00 0.00 92 1019.9
20190616220505 13 352 12.9 17.7 0.00 0.00 0.00 92 1019.9
20190616220006 13 351 12.9 17.7 0.00 0.00 0.00 92 1020.0
20190616215506 13 2 12.9 17.7 0.00 0.00 0.00 91 1020.2
20190616215005 13 9 11.3 17.7 0.00 0.00 0.00 91 1020.4
20190616214506 13 9 12.9 19.3 0.00 0.00 0.00 91 1020.2
20190616214006 13 359 12.9 19.3 0.00 0.00 0.00 90 1020.2
20190616213505 13 3 12.9 19.3 0.00 0.00 0.00 90 1020.3
20190616213006 13 10 11.3 17.7 0.00 0.00 0.00 90 1020.3
20190616212506 13 2 11.3 17.7 0.00 0.00 0.00 89 1020.3
20190616212005 13 359 11.3 17.7 0.00 0.00 0.00 89 1020.2
20190616211506 13 354 11.3 17.7 0.00 0.00 0.00 89 1020.3
20190616211006 13 355 11.3 16.1 0.00 0.00 0.00 89 1020.4
20190616210505 13 350 11.3 16.1 0.00 0.00 0.00 88 1020.3
20190616210006 14 345 11.3 16.1 0.00 0.00 0.00 88 1020.5
20190616205506 14 349 11.3 16.1 0.00 0.00 0.00 87 1020.3
20190616205005 14 352 9.7 12.9 0.00 0.00 0.00 87 1020.3
20190616204506 14 348 11.3 16.1 0.00 0.00 0.00 86 1020.2
20190616204006 14 340 11.3 17.7 0.00 0.00 0.00 86 1020.1
20190616203506 14 337 12.9 17.7 0.00 0.00 0.00 85 1020.1
20190616203006 14 335 14.5 17.7 0.00 0.00 0.00 85 1020.1
20190616202507 14 332 12.9 17.7 0.00 0.00 0.00 84 1020.1
20190616202006 14 330 11.3 17.7 0.00 0.00 0.00 84 1020.1
20190616201506 14 333 12.9 17.7 0.00 0.00 0.00 83 1020.2
20190616201006 15 322 14.5 17.7 0.00 0.00 0.00 83 1020.1
20190616200505 15 334 14.5 24.1 0.00 0.00 0.00 81 1020.2
20190616200007 15 344 14.5 24.1 0.00 0.00 0.00 81 1020.1
20190616195505 15 338 17.7 24.1 0.00 0.00 0.00 81 1020.3
20190616195006 15 347 17.7 25.7 0.00 0.00 0.00 80 1020.6
20190616194506 15 4 17.7 25.7 0.00 0.00 0.00 80 1020.4
20190616194006 15 12 17.7 29.0 0.00 0.00 0.00 79 1020.3
20190616193506 15 352 17.7 29.0 0.00 0.00 0.00 79 1020.3
20190616193006 15 337 17.7 29.0 0.00 0.00 0.00 79 1020.2
20190616192506 15 337 19.3 29.0 0.00 0.00 0.00 79 1020.1
20190616192006 15 336 20.9 29.0 0.00 0.00 0.00 79 1020.2
20190616191506 15 342 20.9 29.0 0.00 0.00 0.00 79 1020.1
20190616191006 15 347 17.7 27.4 0.00 0.00 0.00 78 1020.2
20190616190505 15 325 16.1 24.1 0.00 0.00 0.00 77 1020.2
20190616190006 15 318 17.7 25.7 0.00 0.00 0.00 75 1020.2
20190616185505 16 334 19.3 25.7 0.00 0.00 0.00 74 1020.3
20190616185006 16 334 19.3 29.0 0.00 0.00 0.00 74 1020.2
20190616184506 16 330 20.9 29.0 0.00 0.00 0.00 73 1020.2
20190616184006 16 343 20.9 29.0 0.00 0.00 0.00 72 1020.2
20190616183506 16 349 19.3 27.4 0.00 0.00 0.00 71 1020.2
20190616183006 16 331 17.7 27.4 0.00 0.00 0.00 71 1020.2
20190616182505 16 338 19.3 27.4 0.00 0.00 0.00 71 1020.3
20190616182006 16 339 19.3 27.4 0.00 0.00 0.00 70 1020.0
20190616181506 16 339 17.7 25.7 0.00 0.00 0.00 71 1020.0
20190616181005 17 346 17.7 24.1 0.00 0.00 0.00 69 1020.1
20190616180506 17 330 17.7 25.7 0.00 0.00 0.00 69 1020.2
20190616180007 17 327 17.7 25.7 0.00 0.00 0.00 69 1020.1
20190616175506 17 329 16.1 24.1 0.00 0.00 0.00 67 1020.5
20190616175006 17 333 16.1 24.1 0.00 0.00 0.00 63 1020.1
20190616174506 17 325 17.7 25.7 0.00 0.00 0.00 63 1020.0
20190616174006 17 316 19.3 25.7 0.00 0.00 0.00 67 1020.1
20190616173506 17 327 20.9 29.0 0.00 0.00 0.00 66 1020.2
20190616173006 17 340 20.9 29.0 0.00 0.00 0.00 64 1020.1
20190616172506 17 344 19.3 30.6 0.00 0.00 0.00 60 1020.0
20190616172006 17 338 19.3 30.6 0.00 0.00 0.00 60 1019.9
20190616171506 17 348 20.9 29.0 0.00 0.00 0.00 60 1019.9
20190616171006 17 341 20.9 29.0 0.00 0.00 0.00 58 1019.9
20190616170505 17 314 19.3 29.0 0.00 0.00 0.00 60 1020.0
20190616170006 17 317 17.7 29.0 0.00 0.00 0.00 60 1020.1
20190616165506 17 322 19.3 27.4 0.00 0.00 0.00 60 1019.8
20190616165007 17 321 22.5 29.0 0.00 0.00 0.00 60 1020.0
20190616164506 17 314 20.9 29.0 0.00 0.00 0.00 59 1019.9
20190616164006 17 308 19.3 30.6 0.00 0.00 0.00 59 1020.2
20190616163506 17 333 20.9 33.8 0.00 0.00 0.00 58 1020.0
20190616163006 17 341 20.9 33.8 0.00 0.00 0.00 59 1020.1
20190616162506 17 335 19.3 29.0 0.00 0.00 0.00 58 1020.1
20190616162007 17 332 19.3 30.6 0.00 0.00 0.00 60 1019.8
20190616161506 17 337 20.9 30.6 0.00 0.00 0.00 58 1019.8
20190616161006 17 345 20.9 29.0 0.00 0.00 0.00 59 1020.1
20190616160507 18 331 20.9 32.2 0.00 0.00 0.00 60 1019.9
20190616160007 18 332 20.9 32.2 0.00 0.00 0.00 59 1019.6
20190616155506 17 344 22.5 32.2 0.00 0.00 0.00 60 1019.7
20190616155006 17 339 22.5 32.2 0.00 0.00 0.00 59 1019.9
20190616154506 17 337 22.5 32.2 0.00 0.00 0.00 59 1020.2
20190616154006 18 334 20.9 27.4 0.00 0.00 0.00 60 1020.1
20190616153506 18 327 19.3 27.4 0.00 0.00 0.00 59 1020.0
20190616153007 18 326 19.3 27.4 0.00 0.00 0.00 58 1019.9
20190616152506 18 337 20.9 30.6 0.00 0.00 0.00 60 1020.1
20190616152006 17 328 20.9 30.6 0.00 0.00 0.00 59 1019.9
20190616151506 18 320 20.9 30.6 0.00 0.00 0.00 60 1019.9
20190616151006 18 345 19.3 27.4 0.00 0.00 0.00 60 1019.8
20190616150506 18 354 22.5 33.8 0.00 0.00 0.00 59 1019.9
20190616150007 18 352 22.5 33.8 0.00 0.00 0.00 59 1019.9
20190616145506 18 349 22.5 33.8 0.00 0.00 0.00 60 1020.1
20190616145006 17 344 24.1 33.8 0.00 0.00 0.00 59 1019.9
20190616144506 17 347 22.5 32.2 0.00 0.00 0.00 57 1019.9
20190616144006 17 346 24.1 33.8 0.00 0.00 0.00 59 1020.1
20190616143506 17 343 24.1 33.8 0.00 0.00 0.00 55 1020.0
20190616143007 17 346 24.1 32.2 0.00 0.00 0.00 58 1019.9
20190616142506 17 350 24.1 32.2 0.00 0.00 0.00 60 1020.1
20190616142006 17 359 22.5 32.2 0.00 0.00 0.00 60 1020.2
20190616141506 18 2 22.5 33.8 0.00 0.00 0.00 60 1020.0
20190616141006 17 333 20.9 33.8 0.00 0.00 0.00 59 1020.0
20190616140507 17 334 22.5 37.0 0.00 0.00 0.00 59 1020.1
20190616140007 17 353 27.4 37.0 0.00 0.00 0.00 59 1019.9
20190616135506 18 355 27.4 37.0 0.00 0.00 0.00 59 1020.0
20190616135007 18 347 22.5 35.4 0.00 0.00 0.00 56 1020.1
20190616134506 18 330 20.9 30.6 0.00 0.00 0.00 61 1019.9
20190616134006 17 330 20.9 30.6 0.00 0.00 0.00 62 1019.9
20190616133506 18 340 20.9 35.4 0.00 0.00 0.00 62 1019.9
20190616133007 17 337 24.1 35.4 0.00 0.00 0.00 63 1019.8
20190616132506 17 334 22.5 32.2 0.00 0.00 0.00 61 1020.0
20190616132007 18 332 20.9 30.6 0.00 0.00 0.00 60 1020.0
20190616131506 18 318 20.9 29.0 0.00 0.00 0.00 59 1020.1
20190616131007 18 315 20.9 29.0 0.00 0.00 0.00 59 1020.2
20190616130506 18 320 20.9 29.0 0.00 0.00 0.00 61 1020.2
20190616130007 18 331 22.5 30.6 0.00 0.00 0.00 61 1020.5
20190616125506 17 347 22.5 32.2 0.00 0.00 0.00 60 1020.6
20190616125006 17 358 22.5 32.2 0.00 0.00 0.00 59 1020.5
20190616124507 17 1 24.1 33.8 0.00 0.00 0.00 60 1020.5
20190616124006 17 354 25.7 33.8 0.00 0.00 0.00 61 1020.6
20190616123506 17 348 25.7 33.8 0.00 0.00 0.00 61 1020.3